Date,TemperatureHighF,TemperatureAvgF,TemperatureLowF,DewpointHighF,DewpointAvgF,DewpointLowF,HumidityHigh,HumidityAvg,HumidityLow,PressureMaxIn,PressureMinIn,WindSpeedMaxMPH,WindSpeedAvgMPH,GustSpeedMaxMPH,PrecipitationSumIn
2013-2-1,39,35,32,-100,-100,-100,0,0,100,30.16,30.09,13,-192,14,0.00
2013-2-2,42,39,38,-100,-100,-100,0,0,100,30.09,29.86,15,6,25,0.00
2013-2-3,40,38,35,-100,-100,-100,0,0,100,29.87,29.64,15,-20,25,0.00
2013-2-4,37,30,30,-100,-100,-100,0,0,100,29.88,29.59,9,-119,14,0.00
2013-2-5,40,30,28,-100,-100,-100,0,0,100,29.60,29.45,22,10,37,0.00
2013-2-6,35,27,31,-100,-100,-100,0,0,100,29.73,29.55,10,-100,12,0.00
2013-2-7,38,35,33,-100,-100,-100,0,0,100,29.91,29.73,15,-36,22,0.00
2013-2-8,37,36,35,-100,-100,-100,0,0,100,30.11,29.78,16,-8,25,0.00
2013-2-9,43,39,35,-100,-100,-100,0,0,100,30.15,29.95,21,8,31,0.00
2013-2-10,43,39,35,-100,-100,-100,0,0,100,29.96,29.91,21,-40,31,0.00
2013-2-11,38,36,33,-100,-100,-100,0,0,100,29.91,29.80,19,-176,25,0.00
2013-2-12,36,27,31,-100,-100,-100,0,0,100,30.14,29.73,8,-32,13,0.00
2013-2-13,37,31,31,-100,-100,-100,0,0,100,30.26,30.13,13,6,16,0.00
2013-2-14,40,37,32,-100,-100,-100,0,0,100,30.15,29.91,17,7,22,0.00
2013-2-15,42,34,31,-100,-100,-100,0,0,100,29.92,29.71,15,-42,25,0.00
2013-2-16,38,34,32,-100,-100,-100,0,0,100,30.16,29.90,11,-179,13,0.00
2013-2-17,34,22,30,-100,-100,-100,0,0,100,30.16,29.69,15,5,19,0.00
2013-2-18,36,34,32,-100,-100,-100,0,0,100,29.85,29.69,7,-117,9,0.00
2013-2-19,38,35,33,-100,-100,-100,0,0,100,29.89,29.60,12,6,17,0.00
2013-2-20,37,36,34,-100,-100,-100,0,0,100,29.61,29.32,18,11,27,0.00
2013-2-21,38,35,34,-100,-100,-100,0,0,100,29.38,29.05,16,-8,24,0.00
2013-2-22,38,32,31,-100,-100,-100,0,0,100,29.59,28.93,15,-31,32,0.00
2013-2-23,35,32,32,-100,-100,-100,0,0,100,29.77,29.57,19,-6,29,0.00
2013-2-24,37,34,33,-100,-100,-100,0,0,100,29.86,29.68,11,-68,16,0.00
2013-2-25,37,29,30,-100,-100,-100,0,0,100,29.98,29.85,11,-26,12,0.00
2013-2-26,39,37,33,-100,-100,-100,0,0,100,29.86,29.65,27,6,51,0.00
2013-2-27,39,36,33,-100,-100,-100,0,0,100,29.74,29.53,22,7,31,0.00
2013-2-28,42,38,35,-100,-100,-100,0,0,100,29.84,29.44,18,9,36,0.00